Dewpoint
50 50 49 49 48 47 46 45 45 45 45 45 44 44 45 45 44 44 43 42 41 40 39 39 39 39 39 41 40 40 41 41 42 43 43 43 43 42 42 40 39 40 41 40 40 39 40 39 39 39 39 37 37 36 35 35 35 36 37 36 36 36 36 35 34 35 35 35 35 35 34 35 33 34 33 34 34 35 38 35 36 36 36 36 37
49 49 48 47 46 46 45 45 45 45 44 44 44 44 44 44 43 42 41 42 40 39 38 39 38 39 39 39 39 40 40 40 41 42 42 43 43 43 41 40 39 39 39 39 39 40 38 37 38 39 39 37 36 35 35 34 34 34 35 36 36 36 36 36 35 35 34 34 34 34 34 34 33 33 33 33 34 36 35 35 36 36 37 36 36
49 48 46 46 45 45 44 44 44 43 43 43 43 43 43 43 43 41 40 40 40 38 38 38 38 38 38 39 39 39 39 39 40 40 40 41 42 42 41 40 38 38 39 39 39 38 38 39 37 38 38 35 36 35 35 34 35 34 34 35 35 35 36 37 36 35 34 35 35 34 33 33 33 32 33 34 36 35 34 35 35 36 36 36 36
47 46 45 45 44 44 44 43 43 42 42 42 41 42 42 42 42 40 39 39 38 39 38 38 38 38 37 37 37 37 37 38 38 39 39 40 41 42 41 40 39 39 39 39 38 38 37 36 37 37 37 35 34 34 34 34 34 34 34 34 35 35 36 37 36 36 35 35 35 34 34 33 32 32 33 34 34 34 34 35 35 35 35 35 35
46 45 44 44 44 43 43 43 42 42 42 42 42 42 42 43 42 40 39 38 38 38 39 38 37 37 37 36 36 36 37 37 37 37 38 39 40 41 41 39 39 38 39 40 43 38 39 37 37 36 35 34 34 33 33 32 33 34 33 34 35 35 36 36 36 36 36 35 35 35 34 32 33 32 33 32 33 33 34 35 35 35 35 35 36
45 44 44 44 43 43 43 42 42 41 41 41 41 41 42 41 40 40 38 38 38 38 38 38 38 37 37 37 36 36 36 36 36 37 37 38 39 41 41 40 40 38 38 38 39 39 38 37 37 36 35 33 32 33 33 32 33 33 33 33 34 35 35 35 36 36 35 35 34 34 33 32 31 31 31 32 33 33 33 34 34 35 35 35 35
44 44 44 43 43 42 42 42 42 42 41 41 41 41 41 40 40 39 39 38 37 37 37 37 38 37 36 36 36 36 36 36 36 36 36 37 38 40 40 41 39 40 39 38 37 37 38 38 37 36 35 34 33 33 33 32 34 33 35 33 34 34 34 34 34 34 34 34 33 33 32 32 31 30 30 32 32 33 32 33 33 34 35 35 35
44 44 43 43 42 42 42 42 41 41 41 41 41 41 41 41 41 40 39 38 38 37 37 36 37 36 36 36 37 39 36 36 36 36 37 37 38 38 39 41 40 38 39 38 37 37 38 39 38 37 36 35 34 33 33 33 34 33 32 34 34 34 33 34 33 33 33 32 32 32 32 31 30 30 31 30 30 30 32 33 33 33 33 34 35
44 43 43 42 42 41 42 41 42 42 41 40 41 41 42 42 41 40 39 39 39 37 36 36 35 34 34 34 35 36 37 37 38 37 37 37 36 38 38 40 40 38 38 38 36 36 36 38 39 39 41 38 39 39 39 39 36 34 33 33 35 33 33 32 33 32 31 31 31 31 31 30 30 29 28 28 29 30 31 32 32 33 33 34 34
43 43 42 42 42 41 41 41 40 40 40 40 40 41 41 41 40 38 37 37 37 37 36 36 35 34 33 33 34 35 36 37 39 38 39 38 37 37 38 39 40 38 38 37 36 37 35 36 42 38 40 40 41 39 37 38 39 37 35 35 34 33 33 32 31 31 31 31 30 30 30 30 29 28 28 28 30 31 31 32 31 32 33 34 34
43 42 42 42 41 41 40 40 39 39 39 40 41 41 41 39 37 36 36 35 35 36 33 33 33 33 33 33 33 35 36 37 38 37 37 39 39 37 37 39 40 38 38 37 35 37 37 36 36 38 42 43 39 38 37 37 36 36 37 38 39 36 34 32 31 31 32 31 30 31 30 30 28 28 28 29 30 30 31 32 32 33 33 34 34
42 42 41 41 40 40 39 39 39 39 40 40 40 40 40 39 38 37 35 34 35 34 33 33 33 32 33 33 34 35 35 38 37 37 38 38 41 39 38 39 39 37 35 36 36 37 35 36 36 36 36 39 39 35 36 37 36 36 36 36 36 36 36 36 33 31 31 30 31 31 30 29 28 28 28 29 29 30 31 31 32 33 34 34 35
41 41 41 40 39 39 38 38 39 39 39 40 40 40 40 40 39 37 35 35 34 33 33 33 32 33 32 32 33 34 34 38 37 37 37 37 38 38 37 38 38 37 36 36 36 36 36 38 36 34 33 39 40 33 33 34 36 37 37 37 36 36 34 34 35 35 33 32 31 30 30 29 28 29 30 30 31 30 31 32 33 34 35 36 36
41 40 40 39 38 38 38 38 38 39 39 40 40 41 41 41 40 39 38 36 34 33 33 32 33 32 32 32 33 33 34 37 36 37 37 37 37 37 35 36 36 36 36 36 36 36 35 35 32 32 32 33 33 34 34 33 34 33 33 32 31 33 34 34 34 34 35 33 31 30 30 30 30 30 32 31 31 32 32 33 35 36 37 37 37
40 39 39 38 38 37 37 37 38 38 39 39 40 40 40 40 40 40 37 36 35 34 33 32 33 35 33 32 32 33 34 36 36 36 37 37 37 36 35 36 35 35 35 36 36 36 35 36 33 32 32 32 35 36 35 34 34 33 32 31 31 30 30 30 30 30 32 31 30 30 31 31 31 31 31 31 32 33 34 35 37 38 38 38 37
39 38 38 37 37 37 37 37 38 38 38 39 39 39 39 39 40 40 39 38 37 36 34 34 32 31 32 31 31 30 32 36 36 36 36 36 37 36 34 34 34 35 35 35 35 35 36 35 33 34 33 32 36 36 36 37 33 32 31 30 30 30 29 32 32 32 32 30 31 32 32 32 34 33 33 33 33 34 36 38 39 39 38 36 34
38 38 38 37 36 36 36 37 37 37 38 38 38 38 39 39 39 40 38 38 38 36 34 33 33 32 33 32 30 29 31 34 35 36 36 36 36 34 33 33 33 33 33 34 35 35 35 38 37 35 33 32 36 35 35 37 33 31 31 30 30 28 25 25 30 31 32 33 33 33 33 33 33 34 34 35 35 36 37 39 38 38 36 34 33
38 38 37 36 36 35 36 36 37 37 37 38 38 38 38 38 38 39 38 37 37 36 36 34 33 33 32 31 30 30 30 34 35 36 36 36 37 33 33 32 31 32 33 33 34 33 34 40 40 35 33 34 35 35 35 37 33 31 31 30 27 24 22 24 27 28 31 32 32 32 32 32 33 34 34 35 35 37 39 38 39 38 36 35 33
37 37 36 36 35 35 35 36 36 37 37 37 37 37 37 37 38 37 36 36 37 37 38 35 34 33 33 32 38 33 31 33 35 35 35 36 36 33 33 31 31 30 32 34 33 33 33 36 38 37 36 36 34 35 35 36 33 32 31 29 25 22 22 25 25 25 26 26 26 28 29 31 32 31 33 35 36 38 40 40 40 38 35 35 34
37 36 36 35 34 34 35 36 37 37 37 37 37 37 37 37 37 36 35 35 36 36 37 36 35 35 36 36 38 33 32 31 35 35 36 36 37 34 33 31 31 30 31 34 33 32 33 32 35 34 34 34 34 34 35 35 34 32 31 27 25 24 26 25 27 27 25 26 25 27 28 29 29 29 30 32 36 40 40 41 40 39 37 35 34
37 36 35 35 34 34 35 37 37 37 37 36 36 38 37 37 36 35 34 34 35 35 35 35 36 35 36 37 36 34 34 32 34 35 36 36 35 35 31 31 30 31 30 32 30 31 32 32 32 35 34 35 35 35 35 34 34 34 30 28 28 31 30 24 25 32 24 26 27 27 27 28 28 28 30 32 35 38 41 40 40 40 38 36 34
36 35 34 34 34 35 36 37 37 38 37 37 37 37 37 37 37 36 34 34 34 34 34 35 34 34 34 36 36 35 38 39 32 35 35 36 35 35 33 32 33 31 31 29 30 31 32 32 32 34 35 34 35 35 35 34 33 33 30 32 32 31 28 28 25 24 23 24 24 26 26 27 27 28 30 32 35 38 39 40 39 39 39 38 36
35 34 34 34 36 36 37 37 37 38 38 38 37 36 37 37 37 37 35 34 34 34 34 34 34 33 34 34 36 36 36 39 39 35 35 35 35 35 35 33 34 36 30 30 30 32 31 32 34 36 34 35 35 35 34 33 33 30 32 31 31 31 29 25 25 23 23 23 25 25 25 26 27 27 29 31 35 38 39 39 38 38 38 39 39
34 34 34 35 36 37 37 37 37 38 38 37 36 36 37 37 37 37 36 35 35 35 35 36 35 35 34 34 36 36 36 36 38 37 34 34 35 34 34 34 35 34 33 31 31 32 32 32 34 34 34 35 35 35 34 33 31 32 31 31 31 30 26 25 23 24 25 24 24 24 24 25 26 27 29 31 35 38 39 39 38 38 38 38 38
34 34 34 35 36 37 37 37 37 38 38 37 36 37 36 36 36 36 36 35 35 35 36 36 36 36 36 36 36 35 35 33 32 34 35 35 35 34 34 34 35 35 32 32 33 33 34 34 34 34 34 35 35 34 32 32 32 32 31 31 32 25 25 24 24 24 23 23 24 25 24 25 26 27 29 31 36 38 39 39 38 38 38 38 36
35 34 34 35 36 36 37 37 37 37 37 37 37 37 36 36 35 35 35 35 35 35 35 36 36 35 36 36 36 35 33 31 31 30 36 35 35 35 35 35 36 36 35 32 34 34 34 34 34 34 34 35 35 31 30 31 32 31 31 32 27 25 25 24 24 24 24 24 25 25 24 25 26 27 29 32 35 37 38 38 37 37 37 36 35
35 35 35 36 36 36 36 37 37 37 37 37 37 38 37 35 35 36 36 35 36 35 35 35 35 34 35 37 36 35 34 31 29 28 29 28 30 33 31 32 35 34 33 32 32 32 34 35 34 34 34 34 33 32 30 32 30 28 27 27 27 26 26 26 25 25 25 24 25 24 24 25 26 27 28 30 33 36 38 38 37 36 36 36 35
34 34 35 36 36 36 36 36 37 37 37 36 37 37 37 36 35 35 36 36 36 36 33 33 32 33 35 36 36 33 31 29 28 28 28 29 28 28 30 32 28 28 29 30 31 33 33 34 33 32 31 30 29 28 28 28 28 27 27 27 27 27 29 30 29 25 24 25 25 25 25 26 26 26 28 29 31 35 38 37 37 36 36 35 33
35 35 36 36 36 36 37 37 37 37 36 36 37 37 36 37 36 36 36 37 36 35 33 31 32 32 35 35 33 31 28 27 27 30 30 33 28 28 27 27 28 28 33 34 34 32 29 30 30 30 28 28 27 27 28 27 27 27 27 27 27 26 26 25 25 25 25 25 25 25 25 25 25 26 27 28 30 33 36 37 37 36 35 35 33
37 35 36 36 36 36 37 37 37 37 36 36 35 34 32 35 34 35 34 36 36 34 33 32 32 31 33 33 32 29 26 25 31 32 33 34 33 32 33 33 33 32 34 34 33 28 28 25 27 27 28 26 26 25 27 27 26 26 26 29 27 26 26 26 25 25 26 26 26 26 26 26 26 26 27 28 29 30 34 35 36 37 34 33 33
35 35 36 36 36 36 36 36 36 36 36 35 35 33 32 31 33 34 34 34 35 34 33 33 33 32 32 30 31 33 32 32 32 33 34 34 34 34 34 34 34 34 34 30 26 25 24 26 28 27 25 25 24 25 26 25 24 25 27 27 27 28 27 26 26 27 27 27 27 27 27 26 26 26 27 28 29 29 31 34 35 35 35 34 33
35 35 35 36 36 36 36 36 37 36 35 34 33 32 31 30 31 32 33 34 33 34 33 32 32 32 31 31 31 29 32 32 32 33 34 34 34 34 33 33 34 34 34 33 27 27 25 25 25 26 26 23 23 24 24 25 26 24 25 27 27 27 27 26 27 26 26 26 27 27 27 26 26 26 27 27 29 29 30 32 34 33 34 35 34
34 35 35 36 36 36 36 36 36 36 34 32 32 30 29 28 27 28 30 33 33 33 33 33 33 32 32 32 32 31 31 32 33 34 34 34 33 33 34 34 34 33 33 28 25 27 27 27 26 26 25 23 25 24 25 26 25 26 24 24 25 27 26 26 26 26 27 27 27 27 27 27 27 27 27 27 28 28 30 31 33 33 33 33 32
35 35 35 36 36 36 36 36 36 35 34 32 30 28 28 29 28 27 27 27 28 30 32 32 31 34 34 34 34 34 33 33 33 33 34 33 33 33 33 30 32 33 32 27 25 26 28 28 27 26 26 26 26 25 25 25 26 26 26 26 26 26 26 27 27 27 27 27 27 27 27 27 26 26 26 27 27 28 29 29 32 32 32 32 32
35 34 33 35 35 36 35 36 36 35 33 31 29 27 27 27 28 27 26 24 24 23 24 27 32 33 32 33 34 34 33 33 34 34 33 33 33 33 30 26 26 27 28 29 28 28 29 29 27 26 26 25 25 25 25 26 26 26 26 26 26 26 26 27 28 27 27 27 27 27 27 27 26 27 27 26 26 26 27 28 30 32 32 32 32
36 34 35 35 35 35 35 35 36 35 33 32 30 28 27 26 25 24 25 24 24 23 24 25 27 32 34 33 33 32 31 31 30 30 32 33 33 30 24 24 25 25 26 27 26 28 27 28 27 27 26 26 27 26 26 26 26 26 26 26 24 26 26 27 28 27 27 27 27 27 28 27 27 27 27 26 26 27 27 28 29 30 31 31 31
34 34 34 35 35 35 35 35 36 35 33 32 31 30 30 28 26 24 23 22 23 22 20 23 29 29 32 32 34 34 34 33 32 33 34 34 33 30 26 25 25 25 26 27 27 27 28 28 28 27 27 26 26 26 26 27 26 26 28 26 26 25 25 25 26 25 27 27 28 27 27 28 27 27 27 26 26 26 27 27 28 29 31 31 31
34 34 34 35 35 35 35 36 37 34 34 33 32 32 32 30 28 26 24 23 23 23 22 26 30 25 24 23 34 32 30 34 34 33 33 34 30 29 29 28 27 27 27 27 27 28 28 28 28 28 26 27 26 26 25 26 26 26 26 27 25 24 30 27 25 26 25 26 27 27 28 28 28 28 27 27 26 26 26 27 27 27 29 31 31
35 33 34 34 33 34 34 36 36 35 34 33 32 32 31 30 29 28 25 24 25 25 25 27 28 27 25 25 29 34 30 27 27 28 28 29 29 28 28 28 27 28 27 27 28 28 29 29 28 28 27 27 27 26 25 26 26 26 26 25 25 22 22 23 25 25 25 25 26 26 27 28 28 28 28 27 27 26 26 26 27 27 27 29 30
34 35 35 33 34 33 33 32 35 34 33 33 32 32 30 30 29 28 27 25 25 26 26 28 29 28 28 28 29 30 27 27 27 27 28 28 29 29 28 28 28 27 27 27 28 29 29 29 29 28 27 27 26 26 26 26 26 27 26 23 23 22 22 21 22 23 23 24 24 25 26 27 28 28 28 28 28 27 26 26 27 27 27 28 29
35 37 34 33 34 34 32 31 31 33 34 33 32 31 30 29 28 28 27 27 27 27 27 29 29 30 30 31 31 31 28 26 26 26 27 28 28 29 29 29 29 28 29 29 29 29 29 28 28 28 27 26 26 26 26 26 26 25 24 24 22 23 23 22 21 22 24 23 23 24 25 26 27 27 27 28 29 28 27 27 27 27 27 27 28
36 37 37 34 33 34 34 32 32 32 33 32 31 31 30 30 29 28 28 28 28 28 28 29 30 31 32 33 33 32 30 28 28 27 27 28 28 29 30 30 30 30 29 29 29 29 29 28 29 28 27 27 26 26 26 24 26 25 24 24 23 23 22 23 23 22 22 22 23 24 23 25 28 28 28 30 28 28 27 26 26 27 27 27 27
39 39 37 34 33 34 34 34 34 33 32 32 32 31 30 30 30 29 29 29 29 29 29 30 30 31 32 32 33 32 31 30 29 29 28 28 29 29 29 29 29 29 29 29 29 29 29 29 29 29 29 28 27 27 27 27 27 26 25 24 24 24 23 24 23 23 22 22 22 23 23 23 25 25 27 28 28 28 27 26 26 27 27 27 27
39 38 37 38 33 35 34 34 34 33 32 32 31 31 31 31 31 30 29 29 29 30 30 30 30 30 31 31 31 32 32 31 30 30 29 30 29 29 28 27 26 27 28 29 29 29 29 30 30 30 29 28 28 28 28 29 29 27 26 26 25 24 24 23 24 23 23 22 22 23 22 23 24 24 26 28 26 27 27 26 26 26 27 26 26
42 42 40 36 34 33 33 33 33 32 31 31 30 30 31 30 30 30 30 29 29 29 29 29 30 30 30 30 31 32 32 32 31 31 31 30 29 28 27 25 25 24 26 28 29 29 29 30 30 29 29 29 28 28 28 28 29 30 29 29 26 26 27 26 26 25 24 22 23 22 22 23 23 23 25 26 26 25 27 25 24 26 26 26 25
43 42 41 39 38 36 34 33 32 32 31 30 29 29 29 30 30 30 29 29 29 28 28 29 29 29 29 29 31 32 32 32 32 31 31 30 29 28 27 25 25 25 26 27 28 28 30 30 30 29 30 29 29 28 28 29 29 30 30 30 30 30 29 29 27 24 24 24 23 23 22 23 22 24 26 25 25 25 25 25 24 24 23 24 24
43 42 41 40 37 37 33 32 32 31 30 30 29 29 28 28 28 30 30 29 28 29 28 28 27 28 28 28 29 30 31 32 31 31 30 30 29 28 27 27 27 27 28 28 29 29 29 30 30 30 30 30 29 29 28 28 29 29 30 30 30 30 29 27 28 27 27 27 25 23 23 22 23 24 25 25 25 25 26 26 24 24 25 24 23
42 42 41 39 39 37 34 32 31 31 30 29 29 28 28 28 27 28 28 29 29 29 28 28 27 27 27 28 29 28 29 29 29 29 29 29 28 28 28 28 29 29 29 29 29 30 30 30 30 30 30 30 30 29 29 28 29 29 30 30 30 30 29 26 27 28 27 27 25 24 24 24 23 22 23 24 23 24 25 27 27 25 24 25 24
39 38 38 37 36 35 33 31 30 30 30 29 29 28 28 28 27 27 27 27 28 29 28 28 28 28 28 28 27 28 28 29 28 27 27 27 27 28 28 29 29 29 30 30 30 30 30 30 30 30 30 30 30 29 29 28 28 29 30 30 29 28 27 26 26 28 26 28 26 25 24 25 23 23 24 23 24 24 24 24 24 25 24 24 24
39 38 37 36 34 34 33 31 30 29 29 30 29 28 28 28 28 27 27 27 27 27 27 27 27 27 27 28 28 28 27 28 28 28 28 28 28 28 29 29 29 30 30 30 30 30 30 30 30 30 30 30 30 30 29 29 29 28 29 29 28 28 27 26 26 25 27 27 27 26 26 26 24 24 23 24 23 24 24 25 26 26 24 23 23
37 37 37 35 33 32 31 30 30 29 29 28 29 28 28 28 27 27 28 27 27 26 27 26 26 26 26 26 27 27 28 27 27 27 28 28 28 29 29 29 30 30 30 30 30 30 30 30 30 30 30 30 30 30 29 29 29 30 28 28 28 27 27 26 28 25 25 25 27 26 25 26 25 25 25 25 24 23 26 26 26 26 25 23 23